Saint Bonnet de Bellac- Haute Vienne - France
Donnes mto: samedi, 21/01/2012
Date Horaire Temp. E. Hum. E. P.atmo. Pluie Vent Direction Direction Ensoleilleme Solaire P. de rose Temp au vent Rafales
21/01/2012 00:00 7,8 C 90 % 1027,4 hPa 0,0 mm 2,5 km/h (1 Bft) S-SO 202 0 min 0 W/m 6,3 C 7,8 C 4,3 km/h (1 Bft)
21/01/2012 00:10 7,8 C 90 % 1027,6 hPa 0,0 mm 2,5 km/h (1 Bft) S-SO 202 0 min 0 W/m 6,3 C 7,8 C 10,8 km/h (2 Bft)
21/01/2012 00:20 7,8 C 90 % 1027,5 hPa 0,0 mm 2,2 km/h (1 Bft) O-SO 247 0 min 0 W/m 6,3 C 7,8 C 5,8 km/h (2 Bft)
21/01/2012 00:30 7,8 C 90 % 1027,5 hPa 0,0 mm 6,8 km/h (2 Bft) O 270 0 min 0 W/m 6,3 C 6,7 C 7,9 km/h (2 Bft)
21/01/2012 00:40 7,8 C 90 % 1027,2 hPa 0,0 mm 5,0 km/h (1 Bft) SO 225 0 min 0 W/m 6,3 C 7,3 C 8,6 km/h (2 Bft)
21/01/2012 00:50 7,8 C 90 % 1026,9 hPa 0,0 mm 6,1 km/h (2 Bft) O-NO 292 0 min 0 W/m 6,3 C 6,9 C 13,3 km/h (3 Bft)
21/01/2012 01:00 7,8 C 90 % 1027,0 hPa 0,0 mm 7,2 km/h (2 Bft) SO 225 0 min 0 W/m 6,3 C 6,6 C 7,2 km/h (2 Bft)
21/01/2012 01:10 7,8 C 89 % 1026,9 hPa 0,0 mm 4,0 km/h (1 Bft) O 270 0 min 0 W/m 6,1 C 7,8 C 14,8 km/h (3 Bft)
21/01/2012 01:20 7,8 C 89 % 1027,0 hPa 0,0 mm 4,3 km/h (1 Bft) O-SO 247 0 min 0 W/m 6,1 C 7,8 C 7,9 km/h (2 Bft)
21/01/2012 01:30 7,8 C 89 % 1026,8 hPa 0,0 mm 2,9 km/h (1 Bft) O-SO 247 0 min 0 W/m 6,1 C 7,8 C 7,9 km/h (2 Bft)
21/01/2012 01:40 7,7 C 89 % 1026,8 hPa 0,0 mm 2,5 km/h (1 Bft) O-NO 292 0 min 0 W/m 6,0 C 7,7 C 11,9 km/h (2 Bft)
21/01/2012 01:50 7,6 C 89 % 1026,8 hPa 0,0 mm 1,4 km/h (1 Bft) O 270 0 min 0 W/m 5,9 C 7,6 C 6,5 km/h (2 Bft)
21/01/2012 02:02 7,5 C 89 % 1026,8 hPa 0,0 mm 6,5 km/h (2 Bft) SO 225 0 min 0 W/m 5,8 C 6,5 C 7,2 km/h (2 Bft)
21/01/2012 02:10 7,4 C 89 % 1026,8 hPa 0,0 mm 4,0 km/h (1 Bft) SO 225 0 min 0 W/m 5,7 C 7,4 C 9,7 km/h (2 Bft)
21/01/2012 02:20 7,4 C 89 % 1026,7 hPa 0,0 mm 1,8 km/h (1 Bft) O-SO 247 0 min 0 W/m 5,7 C 7,4 C 4,7 km/h (1 Bft)
21/01/2012 02:30 7,4 C 89 % 1026,6 hPa 0,0 mm 1,4 km/h (1 Bft) SO 225 0 min 0 W/m 5,7 C 7,4 C 4,3 km/h (1 Bft)
21/01/2012 02:40 7,4 C 89 % 1026,7 hPa 0,0 mm 2,9 km/h (1 Bft) O-SO 247 0 min 0 W/m 5,7 C 7,4 C 3,6 km/h (1 Bft)
21/01/2012 02:50 7,4 C 89 % 1026,7 hPa 0,0 mm 0,7 km/h (0 Bft) O 270 0 min 0 W/m 5,7 C 7,4 C 4,0 km/h (1 Bft)
21/01/2012 03:00 7,4 C 89 % 1026,6 hPa 0,0 mm 1,1 km/h (1 Bft) O 270 0 min 0 W/m 5,7 C 7,4 C 4,0 km/h (1 Bft)
21/01/2012 03:10 7,4 C 89 % 1026,5 hPa 0,0 mm 0,4 km/h (0 Bft) O-SO 247 0 min 0 W/m 5,7 C 7,4 C 4,0 km/h (1 Bft)
21/01/2012 03:20 7,4 C 90 % 1026,4 hPa 0,0 mm 1,4 km/h (1 Bft) SO 225 0 min 0 W/m 5,9 C 7,4 C 4,0 km/h (1 Bft)
21/01/2012 03:30 7,2 C 91 % 1026,3 hPa 0,0 mm 2,2 km/h (1 Bft) SO 225 0 min 0 W/m 5,8 C 7,2 C 4,3 km/h (1 Bft)
21/01/2012 03:40 7,1 C 92 % 1026,2 hPa 0,0 mm 1,1 km/h (1 Bft) S-SO 202 0 min 0 W/m 5,9 C 7,1 C 3,6 km/h (1 Bft)
21/01/2012 03:50 6,9 C 92 % 1026,1 hPa 0,0 mm 2,9 km/h (1 Bft) SO 225 0 min 0 W/m 5,7 C 6,9 C 4,0 km/h (1 Bft)
21/01/2012 04:00 6,9 C 93 % 1026,2 hPa 0,1 mm 4,7 km/h (1 Bft) SO 225 0 min 0 W/m 5,8 C 6,3 C 7,6 km/h (2 Bft)
21/01/2012 04:10 6,9 C 94 % 1026,0 hPa 0,1 mm 2,2 km/h (1 Bft) SO 225 0 min 0 W/m 6,0 C 6,9 C 6,1 km/h (2 Bft)
21/01/2012 04:20 6,9 C 94 % 1025,8 hPa 0,0 mm 3,6 km/h (1 Bft) SO 225 0 min 0 W/m 6,0 C 6,9 C 6,8 km/h (2 Bft)
21/01/2012 04:30 6,9 C 95 % 1025,6 hPa 0,1 mm 3,6 km/h (1 Bft) S-SO 202 0 min 0 W/m 6,2 C 6,9 C 6,8 km/h (2 Bft)
21/01/2012 04:40 6,9 C 95 % 1025,5 hPa 0,0 mm 5,4 km/h (2 Bft) SO 225 0 min 0 W/m 6,2 C 6,1 C 8,6 km/h (2 Bft)
21/01/2012 04:50 6,9 C 95 % 1025,3 hPa 0,0 mm 6,1 km/h (2 Bft) S-SO 202 0 min 0 W/m 6,2 C 5,9 C 10,8 km/h (2 Bft)
21/01/2012 05:00 6,9 C 95 % 1025,3 hPa 0,0 mm 5,4 km/h (2 Bft) S-SO 202 0 min 0 W/m 6,2 C 6,1 C 10,8 km/h (2 Bft)
21/01/2012 05:10 7,1 C 95 % 1025,3 hPa 0,0 mm 6,1 km/h (2 Bft) SO 225 0 min 0 W/m 6,4 C 6,1 C 13,0 km/h (3 Bft)
21/01/2012 05:20 7,1 C 95 % 1025,3 hPa 0,0 mm 5,0 km/h (1 Bft) SO 225 0 min 0 W/m 6,4 C 6,5 C 7,9 km/h (2 Bft)
21/01/2012 05:30 7,1 C 95 % 1025,2 hPa 0,0 mm 6,1 km/h (2 Bft) O 270 0 min 0 W/m 6,4 C 6,1 C 10,1 km/h (2 Bft)
21/01/2012 05:40 7,2 C 95 % 1025,2 hPa 0,1 mm 4,3 km/h (1 Bft) SO 225 0 min 0 W/m 6,5 C 7,2 C 7,2 km/h (2 Bft)
21/01/2012 05:50 7,3 C 95 % 1025,0 hPa 0,0 mm 5,8 km/h (2 Bft) S-SO 202 0 min 0 W/m 6,6 C 6,4 C 6,5 km/h (2 Bft)
21/01/2012 06:00 7,3 C 95 % 1025,1 hPa 0,0 mm 3,6 km/h (1 Bft) S-SO 202 0 min 0 W/m 6,6 C 7,3 C 6,8 km/h (2 Bft)
21/01/2012 06:10 7,4 C 95 % 1024,9 hPa 0,0 mm 9,4 km/h (2 Bft) SO 225 0 min 0 W/m 6,7 C 5,6 C 12,6 km/h (3 Bft)
21/01/2012 06:20 7,4 C 95 % 1024,8 hPa 0,0 mm 4,3 km/h (1 Bft) SO 225 0 min 0 W/m 6,7 C 7,4 C 6,8 km/h (2 Bft)
21/01/2012 06:30 7,5 C 96 % 1024,6 hPa 0,0 mm 5,8 km/h (2 Bft) SO 225 0 min 0 W/m 6,9 C 6,7 C 8,3 km/h (2 Bft)
21/01/2012 06:40 7,5 C 96 % 1024,6 hPa 0,0 mm 5,0 km/h (1 Bft) O-SO 247 0 min 0 W/m 6,9 C 6,9 C 5,0 km/h (1 Bft)
21/01/2012 06:50 7,6 C 96 % 1024,5 hPa 0,1 mm 8,3 km/h (2 Bft) O-SO 247 0 min 0 W/m 7,0 C 6,1 C 10,1 km/h (2 Bft)
21/01/2012 07:00 7,6 C 96 % 1024,6 hPa 0,0 mm 6,5 km/h (2 Bft) SO 225 0 min 0 W/m 7,0 C 6,6 C 6,5 km/h (2 Bft)
21/01/2012 07:10 7,7 C 96 % 1024,7 hPa 0,0 mm 2,5 km/h (1 Bft) O-SO 247 0 min 0 W/m 7,1 C 7,7 C 4,3 km/h (1 Bft)
21/01/2012 07:20 7,8 C 96 % 1024,6 hPa 0,0 mm 7,2 km/h (2 Bft) S-SO 202 0 min 0 W/m 7,2 C 6,6 C 7,6 km/h (2 Bft)
21/01/2012 07:30 7,8 C 96 % 1024,5 hPa 0,0 mm 6,5 km/h (2 Bft) S 180 0 min 0 W/m 7,2 C 6,8 C 11,5 km/h (2 Bft)
21/01/2012 07:40 7,8 C 96 % 1024,6 hPa 0,0 mm 3,6 km/h (1 Bft) O-SO 247 0 min 0 W/m 7,2 C 7,8 C 6,5 km/h (2 Bft)
21/01/2012 07:50 7,9 C 96 % 1024,7 hPa 0,0 mm 1,4 km/h (1 Bft) SO 225 0 min 0 W/m 7,3 C 7,9 C 4,7 km/h (1 Bft)
21/01/2012 08:00 7,9 C 96 % 1024,7 hPa 0,0 mm 6,1 km/h (2 Bft) S-SO 202 0 min 0 W/m 7,3 C 7,0 C 6,8 km/h (2 Bft)
21/01/2012 08:10 8,0 C 96 % 1024,7 hPa 0,0 mm 5,4 km/h (2 Bft) SO 225 0 min 0 W/m 7,4 C 7,4 C 7,6 km/h (2 Bft)
21/01/2012 08:20 8,0 C 96 % 1024,7 hPa 0,0 mm 4,0 km/h (1 Bft) O-SO 247 0 min 0 W/m 7,4 C 8,0 C 7,2 km/h (2 Bft)
21/01/2012 08:30 8,1 C 96 % 1024,8 hPa 0,1 mm 6,5 km/h (2 Bft) S-SO 202 0 min 0 W/m 7,5 C 7,1 C 10,1 km/h (2 Bft)
21/01/2012 08:40 8,2 C 96 % 1024,9 hPa 0,0 mm 4,7 km/h (1 Bft) SO 225 0 min 0 W/m 7,6 C 7,8 C 7,9 km/h (2 Bft)
21/01/2012 08:50 8,2 C 96 % 1024,7 hPa 0,0 mm 6,8 km/h (2 Bft) SO 225 2 min 0 W/m 7,6 C 7,2 C 6,8 km/h (2 Bft)
21/01/2012 09:00 8,3 C 96 % 1024,9 hPa 0,0 mm 1,4 km/h (1 Bft) SO 225 2 min 0 W/m 7,7 C 8,3 C 4,3 km/h (1 Bft)
21/01/2012 09:10 8,4 C 96 % 1025,1 hPa 0,0 mm 5,8 km/h (2 Bft) O-SO 247 2 min 0 W/m 7,8 C 7,7 C 9,4 km/h (2 Bft)
21/01/2012 09:20 8,4 C 96 % 1025,2 hPa 0,0 mm 0,0 km/h (0 Bft) O-SO 247 2 min 0 W/m 7,8 C 8,4 C 0,0 km/h (0 Bft)
21/01/2012 09:30 8,5 C 96 % 1025,2 hPa 0,1 mm 1,4 km/h (1 Bft) O-SO 247 2 min 0 W/m 7,9 C 8,5 C 3,6 km/h (1 Bft)
21/01/2012 09:40 8,8 C 96 % 1025,0 hPa 0,0 mm 4,0 km/h (1 Bft) O 270 2 min 0 W/m 8,2 C 8,8 C 9,4 km/h (2 Bft)
21/01/2012 09:50 8,9 C 96 % 1025,0 hPa 0,0 mm 7,6 km/h (2 Bft) O-SO 247 2 min 0 W/m 8,3 C 7,8 C 13,7 km/h (3 Bft)
21/01/2012 10:00 9,1 C 96 % 1025,1 hPa 0,0 mm 6,8 km/h (2 Bft) SO 225 2 min 0 W/m 8,5 C 8,2 C 8,6 km/h (2 Bft)
21/01/2012 10:10 9,1 C 96 % 1025,1 hPa 0,0 mm 3,6 km/h (1 Bft) S 180 2 min 0 W/m 8,5 C 9,1 C 10,4 km/h (2 Bft)
21/01/2012 10:20 9,1 C 96 % 1025,1 hPa 0,0 mm 9,4 km/h (2 Bft) O-SO 247 2 min 0 W/m 8,5 C 7,7 C 18,7 km/h (3 Bft)
21/01/2012 10:30 9,1 C 96 % 1025,1 hPa 0,0 mm 4,3 km/h (1 Bft) O 270 2 min 0 W/m 8,5 C 9,1 C 7,6 km/h (2 Bft)
21/01/2012 10:40 9,1 C 96 % 1025,0 hPa 0,0 mm 0,4 km/h (0 Bft) O-SO 247 2 min 0 W/m 8,5 C 9,1 C 4,0 km/h (1 Bft)
21/01/2012 10:50 9,2 C 96 % 1025,1 hPa 0,0 mm 2,9 km/h (1 Bft) O-SO 247 2 min 0 W/m 8,6 C 9,2 C 8,3 km/h (2 Bft)
21/01/2012 11:00 9,3 C 96 % 1025,0 hPa 0,0 mm 3,2 km/h (1 Bft) O 270 2 min 0 W/m 8,7 C 9,3 C 7,9 km/h (2 Bft)
21/01/2012 11:10 9,3 C 96 % 1025,1 hPa 0,0 mm 2,2 km/h (1 Bft) O 270 2 min 0 W/m 8,7 C 9,3 C 2,2 km/h (1 Bft)
21/01/2012 11:20 9,4 C 96 % 1025,0 hPa 0,0 mm 0,0 km/h (0 Bft) SO 225 2 min 0 W/m 8,8 C 9,4 C 0,0 km/h (0 Bft)
21/01/2012 11:30 9,4 C 96 % 1025,0 hPa 0,0 mm 5,4 km/h (2 Bft) O 270 2 min 0 W/m 8,8 C 9,0 C 16,2 km/h (3 Bft)
21/01/2012 11:40 9,4 C 96 % 1024,9 hPa 0,1 mm 4,0 km/h (1 Bft) O 270 2 min 0 W/m 8,8 C 9,4 C 4,0 km/h (1 Bft)
21/01/2012 11:50 9,4 C 96 % 1025,0 hPa 0,0 mm 3,2 km/h (1 Bft) O-SO 247 2 min 0 W/m 8,8 C 9,4 C 6,1 km/h (2 Bft)
21/01/2012 12:00 9,4 C 96 % 1024,8 hPa 0,0 mm 6,8 km/h (2 Bft) O 270 2 min 0 W/m 8,8 C 8,6 C 24,1 km/h (4 Bft)
21/01/2012 12:10 9,4 C 96 % 1024,8 hPa 0,0 mm 1,4 km/h (1 Bft) O-SO 247 2 min 0 W/m 8,8 C 9,4 C 3,6 km/h (1 Bft)
21/01/2012 12:20 9,5 C 96 % 1024,7 hPa 0,0 mm 0,7 km/h (0 Bft) O-SO 247 2 min 0 W/m 8,9 C 9,5 C 3,2 km/h (1 Bft)
21/01/2012 12:30 9,7 C 96 % 1024,5 hPa 0,0 mm 1,4 km/h (1 Bft) O 270 2 min 0 W/m 9,1 C 9,7 C 7,2 km/h (2 Bft)
21/01/2012 12:40 9,8 C 96 % 1024,4 hPa 0,0 mm 12,2 km/h (2 Bft) O 270 2 min 0 W/m 9,2 C 8,0 C 27,4 km/h (5 Bft)
21/01/2012 12:50 10,0 C 96 % 1024,3 hPa 0,0 mm 1,4 km/h (1 Bft) O-SO 247 2 min 0 W/m 9,4 C 10,0 C 4,0 km/h (1 Bft)
21/01/2012 13:00 10,0 C 96 % 1024,2 hPa 0,0 mm 7,6 km/h (2 Bft) O-SO 247 2 min 0 W/m 9,4 C 9,1 C 11,9 km/h (2 Bft)
21/01/2012 13:10 10,1 C 96 % 1024,1 hPa 0,0 mm 2,5 km/h (1 Bft) S 180 2 min 0 W/m 9,5 C 10,1 C 10,4 km/h (2 Bft)
21/01/2012 13:20 10,1 C 96 % 1024,0 hPa 0,0 mm 3,6 km/h (1 Bft) O-SO 247 2 min 0 W/m 9,5 C 10,1 C 3,6 km/h (1 Bft)
21/01/2012 13:30 10,0 C 95 % 1023,8 hPa 0,0 mm 3,2 km/h (1 Bft) O-SO 247 2 min 0 W/m 9,2 C 10,0 C 4,0 km/h (1 Bft)
21/01/2012 13:40 9,9 C 95 % 1023,7 hPa 0,0 mm 7,9 km/h (2 Bft) O 270 2 min 0 W/m 9,1 C 8,9 C 17,3 km/h (3 Bft)
21/01/2012 13:50 9,9 C 95 % 1023,5 hPa 0,0 mm 3,2 km/h (1 Bft) O-SO 247 2 min 0 W/m 9,1 C 9,9 C 8,3 km/h (2 Bft)
21/01/2012 14:00 10,0 C 95 % 1023,3 hPa 0,0 mm 3,6 km/h (1 Bft) O-SO 247 2 min 0 W/m 9,2 C 10,0 C 3,6 km/h (1 Bft)
21/01/2012 14:10 9,9 C 94 % 1023,1 hPa 0,0 mm 2,2 km/h (1 Bft) SO 225 2 min 0 W/m 9,0 C 9,9 C 4,3 km/h (1 Bft)
21/01/2012 14:20 10,1 C 94 % 1023,0 hPa 0,0 mm 4,0 km/h (1 Bft) O-SO 247 2 min 0 W/m 9,2 C 10,1 C 8,6 km/h (2 Bft)
21/01/2012 14:30 10,0 C 94 % 1023,0 hPa 0,0 mm 5,8 km/h (2 Bft) SO 225 2 min 0 W/m 9,1 C 9,5 C 13,3 km/h (3 Bft)
21/01/2012 14:40 10,1 C 94 % 1022,8 hPa 0,0 mm 3,6 km/h (1 Bft) SO 225 2 min 0 W/m 9,2 C 10,1 C 3,6 km/h (1 Bft)
21/01/2012 14:50 10,1 C 94 % 1022,9 hPa 0,0 mm 2,5 km/h (1 Bft) SO 225 2 min 0 W/m 9,2 C 10,1 C 7,9 km/h (2 Bft)
21/01/2012 15:00 10,2 C 93 % 1022,9 hPa 0,0 mm 4,0 km/h (1 Bft) O-SO 247 2 min 0 W/m 9,1 C 10,2 C 11,5 km/h (2 Bft)
21/01/2012 15:10 10,2 C 93 % 1023,0 hPa 0,0 mm 0,7 km/h (0 Bft) O-SO 247 2 min 0 W/m 9,1 C 10,2 C 4,0 km/h (1 Bft)
21/01/2012 15:20 10,2 C 94 % 1022,8 hPa 0,0 mm 5,8 km/h (2 Bft) O-SO 247 2 min 0 W/m 9,3 C 10,2 C 11,2 km/h (2 Bft)
21/01/2012 15:30 10,2 C 93 % 1022,7 hPa 0,0 mm 7,2 km/h (2 Bft) S-SO 202 2 min 0 W/m 9,1 C 10,2 C 11,5 km/h (2 Bft)
21/01/2012 15:40 10,3 C 93 % 1022,7 hPa 0,0 mm 2,5 km/h (1 Bft) S-SO 202 2 min 0 W/m 9,2 C 10,3 C 9,4 km/h (2 Bft)
21/01/2012 15:50 10,2 C 93 % 1022,7 hPa 0,0 mm 9,7 km/h (2 Bft) SO 225 2 min 0 W/m 9,1 C 10,2 C 12,6 km/h (3 Bft)
21/01/2012 16:00 10,2 C 94 % 1022,7 hPa 0,0 mm 2,2 km/h (1 Bft) O-SO 247 2 min 0 W/m 9,3 C 10,2 C 8,3 km/h (2 Bft)
21/01/2012 16:10 10,1 C 94 % 1022,6 hPa 0,0 mm 6,8 km/h (2 Bft) S-SO 202 2 min 0 W/m 9,2 C 10,1 C 9,0 km/h (2 Bft)
21/01/2012 16:20 10,1 C 94 % 1022,7 hPa 0,0 mm 4,3 km/h (1 Bft) O-SO 247 2 min 0 W/m 9,2 C 10,1 C 6,5 km/h (2 Bft)
21/01/2012 16:30 10,1 C 94 % 1022,7 hPa 0,0 mm 2,2 km/h (1 Bft) O-SO 247 2 min 0 W/m 9,2 C 10,1 C 7,6 km/h (2 Bft)
21/01/2012 16:40 10,1 C 94 % 1022,5 hPa 0,0 mm 4,3 km/h (1 Bft) S 180 2 min 0 W/m 9,2 C 10,1 C 9,4 km/h (2 Bft)
21/01/2012 16:50 10,1 C 94 % 1022,6 hPa 0,0 mm 6,1 km/h (2 Bft) SO 225 2 min 0 W/m 9,2 C 10,1 C 12,6 km/h (3 Bft)
21/01/2012 17:00 10,0 C 94 % 1022,7 hPa 0,1 mm 2,9 km/h (1 Bft) O-SO 247 2 min 0 W/m 9,1 C 10,0 C 11,2 km/h (2 Bft)
21/01/2012 17:10 10,0 C 94 % 1022,7 hPa 0,0 mm 4,7 km/h (1 Bft) O-SO 247 2 min 0 W/m 9,1 C 9,8 C 7,6 km/h (2 Bft)
21/01/2012 17:20 10,0 C 94 % 1022,6 hPa 0,0 mm 6,5 km/h (2 Bft) O-SO 247 2 min 0 W/m 9,1 C 9,3 C 10,8 km/h (2 Bft)
21/01/2012 17:30 9,9 C 94 % 1022,6 hPa 0,0 mm 3,2 km/h (1 Bft) O-SO 247 2 min 0 W/m 9,0 C 9,9 C 4,0 km/h (1 Bft)
21/01/2012 17:40 9,9 C 95 % 1022,5 hPa 0,0 mm 4,3 km/h (1 Bft) SO 225 0 min 0 W/m 9,1 C 9,9 C 7,9 km/h (2 Bft)
21/01/2012 17:50 9,9 C 95 % 1022,5 hPa 0,0 mm 5,4 km/h (2 Bft) SO 225 0 min 0 W/m 9,1 C 9,5 C 10,8 km/h (2 Bft)
21/01/2012 18:00 9,9 C 95 % 1022,4 hPa 0,0 mm 6,5 km/h (2 Bft) SO 225 0 min 0 W/m 9,1 C 9,2 C 10,8 km/h (2 Bft)
21/01/2012 18:10 9,9 C 95 % 1022,3 hPa 0,1 mm 2,5 km/h (1 Bft) O-SO 247 0 min 0 W/m 9,1 C 9,9 C 4,3 km/h (1 Bft)
21/01/2012 18:20 9,9 C 95 % 1022,3 hPa 0,0 mm 4,0 km/h (1 Bft) O 270 0 min 0 W/m 9,1 C 9,9 C 12,6 km/h (3 Bft)
21/01/2012 18:30 9,9 C 95 % 1022,4 hPa 0,0 mm 0,7 km/h (0 Bft) O-SO 247 0 min 0 W/m 9,1 C 9,9 C 0,7 km/h (0 Bft)
21/01/2012 18:40 10,0 C 95 % 1022,4 hPa 0,0 mm 2,2 km/h (1 Bft) O-SO 247 0 min 0 W/m 9,2 C 10,0 C 4,0 km/h (1 Bft)
21/01/2012 18:50 9,9 C 95 % 1022,8 hPa 0,0 mm 5,4 km/h (2 Bft) O-SO 247 0 min 0 W/m 9,1 C 9,5 C 5,4 km/h (2 Bft)
21/01/2012 19:00 10,0 C 95 % 1022,7 hPa 0,0 mm 2,2 km/h (1 Bft) O-SO 247 0 min 0 W/m 9,2 C 10,0 C 7,2 km/h (2 Bft)
21/01/2012 19:10 10,0 C 95 % 1022,7 hPa 0,0 mm 1,1 km/h (1 Bft) O 270 0 min 0 W/m 9,2 C 10,0 C 4,3 km/h (1 Bft)
21/01/2012 19:20 10,0 C 95 % 1022,6 hPa 0,0 mm 1,4 km/h (1 Bft) O 270 0 min 0 W/m 9,2 C 10,0 C 6,5 km/h (2 Bft)
21/01/2012 19:30 9,9 C 95 % 1022,5 hPa 0,0 mm 4,0 km/h (1 Bft) SO 225 0 min 0 W/m 9,1 C 9,9 C 7,9 km/h (2 Bft)
21/01/2012 19:40 9,9 C 95 % 1022,6 hPa 0,0 mm 5,0 km/h (1 Bft) O-SO 247 0 min 0 W/m 9,1 C 9,6 C 5,0 km/h (1 Bft)
21/01/2012 19:50 9,9 C 95 % 1022,9 hPa 0,0 mm 3,2 km/h (1 Bft) SO 225 0 min 0 W/m 9,1 C 9,9 C 6,8 km/h (2 Bft)
21/01/2012 20:00 9,8 C 95 % 1022,9 hPa 0,0 mm 4,0 km/h (1 Bft) SO 225 0 min 0 W/m 9,0 C 9,8 C 8,6 km/h (2 Bft)
21/01/2012 20:10 9,8 C 95 % 1022,9 hPa 0,0 mm 3,2 km/h (1 Bft) O-SO 247 0 min 0 W/m 9,0 C 9,8 C 9,0 km/h (2 Bft)
21/01/2012 20:20 9,7 C 95 % 1022,8 hPa 0,1 mm 6,1 km/h (2 Bft) SO 225 0 min 0 W/m 8,9 C 9,1 C 15,1 km/h (3 Bft)
21/01/2012 20:30 9,6 C 95 % 1022,9 hPa 0,0 mm 3,2 km/h (1 Bft) O 270 0 min 0 W/m 8,8 C 9,6 C 6,1 km/h (2 Bft)
21/01/2012 20:40 9,5 C 95 % 1022,9 hPa 0,0 mm 5,8 km/h (2 Bft) SO 225 0 min 0 W/m 8,7 C 9,0 C 18,0 km/h (3 Bft)
21/01/2012 20:50 9,4 C 95 % 1022,8 hPa 0,0 mm 5,8 km/h (2 Bft) O-SO 247 0 min 0 W/m 8,6 C 8,8 C 11,9 km/h (2 Bft)
21/01/2012 21:00 9,4 C 95 % 1022,8 hPa 0,0 mm 1,1 km/h (1 Bft) SO 225 0 min 0 W/m 8,6 C 9,4 C 4,0 km/h (1 Bft)
21/01/2012 21:10 9,4 C 95 % 1022,7 hPa 0,0 mm 0,4 km/h (0 Bft) O 270 0 min 0 W/m 8,6 C 9,4 C 4,0 km/h (1 Bft)
21/01/2012 21:20 9,4 C 95 % 1022,8 hPa 0,1 mm 2,5 km/h (1 Bft) O-SO 247 0 min 0 W/m 8,6 C 9,4 C 7,9 km/h (2 Bft)
_ Min-Heure 05:00 03:10 18:20 - 11:20 - - - - 03:50 06:10 11:20
Minimum _ 6,9 C 89 % 1022,3 hPa - 0,0 km/h (0 Bft) - - - - 5,7 C 5,6 C 0,0 km/h (0 Bft)
_ Max-Heure 15:40 13:20 00:10 21:20 12:40 - - 17:30 21:20 13:20 15:40 12:40
Maximum _ 10,3 C 96 % 1027,6 hPa 0,1 mm 12,2 km/h
O (2 Bft)
- - 2 min 0 W/m 9,5 C 10,3 C 27,4 km/h
O (5 Bft)
Moyenne _ 8,8 C 94 % 1024,5 hPa #1,2 mm 4,1 km/h (1 Bft) O-SO - #1:46 h 0 W/m 7,9 C 8,5 C 8,0 km/h (2 Bft)
Saint Bonnet de Bellac- Haute Vienne - France